Wind_Speed
5 2 5 5 5 8 2 5 3 1 5 7 7 8 9 5 4 8 11 13 14 14 15 14 13 11 11 10 10 9 9 9 10 10 10 11 11 11 11 11 11 12 11 12 14 16 17 17 16 18 20 19 19 21 20 14 12 12 11 11 9 5 5 4 5 9 10 15 18 20 26 27 22 21 23 23 24 23 23 24 23 23 22 21 22 23 22
4 3 5 5 5 6 4 3 2 1 4 6 8 10 9 2 10 14 14 13 12 12 13 14 12 11 10 9 9 9 10 9 10 10 10 11 11 11 11 11 11 11 12 13 15 16 17 17 17 16 15 15 16 17 16 14 13 14 12 12 12 9 9 8 4 4 7 11 15 18 24 27 23 18 19 20 22 24 23 23 22 23 24 23 21 22 23
5 5 5 5 6 5 4 4 3 1 5 7 5 6 5 2 11 15 16 15 11 9 12 13 10 9 9 9 9 9 9 9 10 10 9 10 10 11 11 11 11 11 12 14 15 15 16 16 16 15 14 14 14 12 10 12 13 14 13 13 13 13 13 11 8 6 5 7 13 18 20 20 18 17 21 27 26 21 21 23 23 22 23 23 22 21 22
6 7 8 8 8 6 7 10 6 4 8 7 4 5 5 5 12 15 15 13 9 9 12 12 10 9 9 10 10 8 6 7 9 11 10 10 10 10 11 11 11 11 12 13 15 15 15 15 15 16 15 15 13 11 11 12 14 15 16 17 17 16 17 15 13 13 12 10 11 16 18 17 14 13 19 27 30 29 24 18 18 20 21 23 22 21 20
7 9 8 7 7 7 7 10 9 8 8 7 6 7 3 6 13 14 10 9 10 11 12 12 11 11 10 9 9 7 6 7 8 8 10 10 9 10 10 10 11 11 12 13 14 14 15 15 15 15 15 15 14 14 14 13 14 17 17 18 18 18 16 16 16 17 17 16 17 20 18 17 17 13 12 17 19 22 29 29 22 18 16 18 20 21 21
7 10 6 4 6 7 4 4 7 11 11 10 10 6 5 5 8 11 9 11 14 13 12 12 13 11 9 9 10 8 5 6 7 7 7 9 8 9 10 10 10 11 12 13 14 14 14 14 14 14 14 14 14 14 14 14 15 17 18 17 18 17 16 16 17 18 19 19 19 20 18 16 15 13 10 10 10 13 16 18 19 20 19 16 14 16 18
7 7 3 5 6 4 1 4 3 3 7 8 5 7 9 6 9 14 14 14 15 13 12 12 12 13 11 9 10 9 5 4 6 6 5 7 7 7 8 9 10 11 13 13 13 14 14 14 14 14 14 15 14 14 14 14 14 16 17 17 18 18 17 18 18 18 19 19 18 17 16 15 13 10 8 8 7 8 9 9 12 16 18 18 16 15 14
5 5 5 5 2 1 3 5 5 4 4 4 6 10 9 5 9 14 15 14 13 13 13 11 11 12 11 8 7 8 3 1 3 7 6 6 7 7 7 9 11 12 12 12 12 12 12 13 14 14 14 14 14 14 14 13 14 15 16 17 18 18 18 17 17 17 16 16 16 16 16 15 13 11 9 8 6 5 6 6 7 10 15 18 18 17 18
5 7 7 4 1 2 3 4 3 2 3 4 5 6 6 5 8 11 13 14 13 12 14 14 12 12 11 7 5 9 7 1 2 6 7 5 6 8 7 9 12 12 12 11 11 11 11 13 14 14 13 14 14 15 15 15 14 15 16 17 17 17 17 17 16 15 14 13 14 15 15 16 15 13 12 11 10 8 6 6 6 8 12 17 18 18 19
5 6 7 6 5 5 6 7 6 4 2 1 2 5 7 8 9 10 12 14 14 13 13 14 14 12 9 7 5 9 12 6 2 4 6 6 6 7 7 9 11 12 12 11 11 12 12 14 14 13 12 12 13 14 15 16 15 15 15 17 17 17 16 16 15 15 13 12 13 13 14 15 15 14 13 13 12 10 8 7 6 7 10 14 17 19 21
5 5 6 6 5 3 2 8 8 3 2 5 4 4 6 8 10 12 12 13 13 13 12 13 12 9 7 7 5 5 9 8 5 4 4 5 6 6 7 10 10 10 10 10 11 12 12 14 15 14 12 12 13 13 14 14 14 14 14 15 15 16 16 15 14 14 14 13 12 12 12 13 13 12 12 12 12 12 12 11 10 9 10 12 13 15 18
6 6 5 5 3 2 6 10 8 5 7 7 3 5 6 10 11 11 11 11 9 7 7 9 7 4 4 6 6 5 6 5 5 4 3 4 5 6 8 10 10 9 9 10 11 11 12 13 14 14 14 14 13 13 12 12 12 13 13 14 14 14 15 15 14 13 13 13 13 12 10 10 12 12 11 11 12 13 14 14 13 13 14 15 14 14 14
7 6 6 4 2 5 8 10 8 7 7 5 5 3 4 10 11 8 9 9 6 4 4 6 6 5 7 7 5 6 6 3 2 3 3 3 4 6 8 9 8 8 9 10 11 11 12 13 13 13 14 14 13 13 12 11 11 11 11 12 13 14 14 14 14 14 13 13 14 12 10 10 13 13 14 14 13 13 12 11 12 13 15 17 17 16 15
6 6 6 4 3 5 6 8 9 6 3 3 2 3 4 7 9 7 6 6 9 8 7 8 6 5 9 8 5 5 6 3 1 1 2 3 4 6 7 7 7 9 9 10 11 12 13 13 13 13 13 13 12 12 12 11 11 11 11 11 12 13 13 13 13 14 13 12 12 12 11 11 12 13 15 16 14 13 12 11 12 13 15 17 18 18 18
6 6 7 5 3 5 7 8 6 2 1 2 5 6 6 6 6 5 6 9 9 6 6 8 5 4 7 7 5 5 4 2 2 3 4 5 5 6 7 7 9 10 9 9 11 12 13 13 13 12 12 12 12 11 12 12 12 11 10 11 11 11 12 12 13 13 12 12 12 12 12 11 11 13 15 16 16 15 13 13 14 14 15 17 17 17 18
4 5 4 1 2 5 7 6 5 5 5 5 6 6 7 7 5 4 6 9 8 5 5 5 3 2 3 4 5 5 2 1 3 5 6 6 6 7 8 9 10 10 9 9 10 11 11 12 13 12 12 12 12 12 12 12 13 12 11 10 10 10 11 12 12 12 12 12 11 10 11 12 12 14 14 14 14 14 13 13 14 15 16 16 17 17 17
2 1 2 2 3 6 7 6 7 10 9 6 5 6 6 6 6 5 6 9 9 6 4 2 1 0 2 3 4 3 2 3 5 5 5 6 7 7 8 9 11 11 11 11 10 10 11 12 13 13 13 13 13 13 13 13 13 13 12 11 9 9 10 11 12 12 13 12 10 9 11 12 12 13 13 13 12 11 11 11 12 12 13 15 16 17 17
1 3 4 5 4 5 8 8 8 9 8 5 5 4 5 6 6 4 5 9 10 7 3 1 1 1 2 2 2 2 3 4 4 5 5 6 7 8 8 10 11 12 12 12 12 12 12 12 12 12 13 13 13 14 13 13 13 14 14 13 11 10 9 10 11 13 13 12 10 9 11 11 11 11 12 13 14 13 10 9 9 10 13 16 18 19 18
2 3 6 7 7 6 8 8 8 8 7 5 3 2 3 8 8 5 5 8 9 8 4 2 2 1 1 2 2 3 3 3 4 5 6 6 7 8 9 10 10 10 11 12 13 14 14 14 14 14 13 14 14 14 15 14 14 14 15 14 13 11 10 10 11 12 12 11 10 10 10 10 11 12 11 11 13 14 12 11 10 11 13 16 17 18 19
4 2 5 6 5 6 6 6 6 7 6 5 4 4 5 8 8 7 7 6 6 6 6 4 3 2 2 2 2 1 1 2 4 5 6 7 8 9 9 10 9 9 9 11 13 14 15 16 16 16 16 15 15 15 15 15 15 15 14 14 13 12 11 10 11 11 11 11 10 10 11 11 11 12 11 10 11 13 14 14 12 11 13 16 18 19 19
6 4 6 6 4 4 5 6 6 7 9 9 8 7 6 7 7 6 5 3 3 4 5 4 3 2 2 2 2 2 2 3 4 4 6 7 8 9 9 9 10 9 10 10 12 13 14 16 17 18 18 18 17 16 15 15 14 14 14 14 15 14 11 9 9 10 10 10 11 11 12 12 12 12 12 12 13 14 16 16 14 13 15 17 19 20 21
3 2 1 3 3 3 5 6 7 6 10 12 11 9 7 7 6 6 5 4 3 3 4 4 4 3 3 2 1 1 2 3 4 5 7 8 8 9 9 10 10 10 10 11 11 12 14 16 18 19 20 19 18 17 16 15 14 15 15 15 15 14 11 9 9 9 8 10 11 12 12 13 13 13 14 15 15 17 18 17 14 13 15 16 17 19 22
2 4 7 5 3 2 1 2 4 3 5 8 9 9 8 6 6 6 5 5 5 4 5 6 5 3 3 4 3 2 3 3 4 5 7 8 8 9 10 10 10 10 11 11 12 13 14 15 18 20 21 20 19 18 16 15 15 15 16 16 15 13 12 10 9 8 8 9 11 11 12 13 14 15 16 17 17 17 18 17 16 15 16 15 14 15 18
2 1 4 5 4 2 1 1 2 3 4 5 7 9 7 7 8 9 8 6 5 3 4 5 6 6 7 6 4 3 3 3 5 5 6 7 8 9 9 9 10 10 11 12 13 13 13 14 17 19 20 20 20 19 17 16 16 16 16 16 15 12 11 10 10 10 10 11 12 12 12 14 15 14 15 16 18 18 18 18 18 19 18 15 13 13 14
2 1 1 3 5 3 1 2 3 4 5 5 5 7 8 8 9 9 8 9 9 8 5 4 7 7 5 3 2 2 3 4 5 6 5 6 7 7 8 9 10 10 11 12 13 14 13 14 16 18 18 17 19 18 17 15 15 15 15 15 13 10 9 10 10 11 11 12 12 12 12 13 15 14 13 15 17 19 20 21 21 19 17 15 14 14 13
6 4 2 2 5 5 3 3 4 6 7 7 6 6 8 9 8 7 5 5 9 10 5 4 4 3 4 2 2 4 5 5 4 5 5 6 7 6 7 8 9 10 12 12 12 14 14 14 15 17 17 16 18 19 17 17 17 15 13 13 11 10 9 10 10 11 12 12 13 12 11 12 14 13 13 15 16 18 20 22 21 19 17 15 14 13 13
6 5 4 4 5 4 3 5 6 7 9 9 8 8 8 11 12 9 7 5 5 6 6 5 5 1 2 1 4 5 6 5 4 4 4 5 6 6 7 8 9 10 12 12 11 13 14 14 14 15 16 16 17 17 17 17 16 14 13 12 11 10 10 10 10 11 12 13 13 12 12 12 12 13 14 16 16 17 19 20 20 20 18 16 14 14 15
4 6 7 6 5 4 5 8 9 8 8 9 9 9 9 10 11 10 6 4 4 3 4 3 3 3 4 4 5 5 6 6 4 3 3 4 5 6 6 8 9 10 11 11 11 12 13 14 14 14 15 15 16 16 17 17 16 15 13 12 12 11 11 12 12 12 13 13 13 13 12 13 13 14 16 16 17 18 18 19 20 20 18 17 16 16 15
4 6 7 6 6 6 8 9 10 8 8 9 9 10 9 8 8 7 6 6 7 6 5 5 5 6 5 5 6 6 6 5 4 3 3 3 4 5 6 7 9 9 10 10 11 11 12 14 14 14 13 14 15 16 17 17 16 15 15 14 13 12 12 13 13 14 14 14 14 15 15 15 15 15 15 15 16 17 17 18 18 18 18 18 18 16 14
5 6 7 7 6 7 8 9 9 8 9 10 10 10 10 9 8 7 8 9 10 8 8 9 9 8 6 6 6 6 6 5 4 3 4 4 4 4 6 7 8 9 9 10 11 12 12 13 14 13 13 14 15 16 16 16 16 16 15 15 14 14 14 15 15 15 15 16 16 16 16 15 15 14 14 15 16 16 16 17 18 17 17 16 16 16 15
6 6 6 6 6 7 8 8 8 8 9 9 10 11 11 11 10 9 9 9 9 9 9 9 8 7 7 7 6 6 5 5 4 4 4 4 4 4 5 6 7 8 9 10 11 12 12 12 13 13 13 14 15 16 16 16 16 15 15 14 14 15 16 17 17 15 14 15 16 16 15 15 15 14 14 15 16 16 16 16 17 17 16 15 15 15 14
7 5 6 6 6 7 7 7 7 8 9 11 11 11 11 11 11 10 9 9 9 9 9 9 8 8 8 8 7 6 5 5 5 5 4 4 4 4 5 6 6 7 8 9 10 11 11 11 12 13 14 14 15 16 16 17 16 15 14 14 14 15 16 17 17 17 16 16 16 16 16 16 15 14 13 15 16 16 16 16 16 16 16 16 16 16 13
9 6 6 6 5 6 7 7 7 8 9 9 10 10 11 12 11 9 8 9 10 10 10 9 9 9 8 8 7 6 6 6 5 5 5 4 4 5 6 6 7 7 8 8 9 9 9 10 11 12 13 14 15 15 16 16 16 15 15 14 14 15 15 16 16 17 16 16 16 16 17 17 15 14 14 15 16 16 16 16 16 16 16 16 17 17 15
6 7 9 11 9 6 6 6 6 7 8 8 9 11 12 11 11 11 11 11 12 11 11 10 9 10 9 8 7 7 7 6 5 5 4 4 4 5 6 7 7 8 8 8 8 9 9 8 9 11 13 15 16 15 15 15 15 15 15 15 15 15 16 16 16 16 16 16 16 17 17 17 16 15 14 15 16 17 17 17 16 16 16 17 17 17 16
7 6 8 11 11 11 10 9 6 4 5 5 8 10 7 4 6 11 12 13 13 12 12 11 10 10 10 9 8 8 7 6 5 4 4 4 4 5 6 7 8 8 8 8 7 8 8 7 8 11 14 16 16 15 14 14 14 15 15 16 16 16 16 16 16 16 16 17 17 17 17 16 16 15 15 16 17 18 18 18 18 17 17 16 16 15 15
9 7 6 7 8 7 7 7 6 5 5 4 5 6 5 5 7 13 14 15 15 14 12 13 12 11 11 10 9 8 6 5 4 4 3 3 4 5 6 7 8 8 9 8 7 7 7 8 10 12 14 15 15 14 14 14 14 15 16 17 17 17 17 16 16 16 16 17 17 17 16 16 16 16 16 16 16 17 17 17 17 17 16 16 15 14 14
8 8 7 8 9 9 6 6 7 6 4 3 4 4 6 9 11 14 17 16 16 15 13 13 13 12 12 11 10 8 6 4 2 2 2 3 4 5 6 7 7 8 8 7 7 8 8 10 12 14 14 13 13 14 13 13 15 17 17 17 17 17 17 17 17 17 17 17 16 16 16 17 17 17 17 16 15 15 15 15 16 16 16 16 15 14 13
9 9 8 8 9 9 7 7 7 8 10 10 8 7 7 9 10 12 16 17 16 17 16 15 14 13 12 11 9 8 7 5 4 3 3 3 4 5 6 7 7 6 6 6 7 9 10 11 13 14 14 13 13 13 13 13 16 18 18 17 17 18 18 17 17 17 16 16 16 16 16 17 17 18 18 17 15 15 15 15 15 16 16 16 15 14 13
10 10 9 9 9 9 8 7 7 8 11 14 11 9 9 9 10 12 18 20 18 17 16 15 15 13 12 11 9 8 7 6 5 4 3 3 3 4 6 6 4 3 3 5 7 9 10 12 14 14 12 11 11 12 13 14 17 19 19 19 18 18 17 17 16 16 16 16 16 16 17 17 17 17 17 17 16 15 15 15 15 16 16 15 15 14 13
10 10 9 8 8 9 9 7 6 6 8 11 11 9 9 11 10 11 17 20 19 19 17 17 16 14 13 12 10 8 7 6 5 4 4 3 3 4 5 4 3 5 5 5 7 9 11 12 12 11 9 10 11 12 14 16 19 19 19 19 18 17 17 16 16 16 16 15 16 17 17 17 17 16 15 16 16 15 15 15 14 14 14 14 13 12 11
10 10 10 9 8 9 8 8 8 8 8 9 11 11 10 11 11 10 13 16 17 19 18 17 17 15 13 12 11 9 7 6 5 5 4 2 3 4 4 3 4 5 5 6 8 10 11 10 9 8 9 11 12 13 16 19 19 19 18 17 16 16 16 15 15 15 15 15 16 17 17 17 17 16 15 15 15 14 15 15 14 14 13 13 13 12 11
11 11 11 10 9 9 8 7 8 9 9 8 9 9 9 9 11 13 13 16 15 18 18 16 16 15 13 12 11 9 8 7 6 5 4 3 4 4 4 3 3 3 4 6 8 10 11 9 7 7 9 11 13 16 19 19 18 16 15 15 15 15 15 15 15 15 15 14 15 16 17 17 16 16 15 14 14 14 14 15 15 14 13 13 12 12 11
11 11 11 10 10 10 10 9 8 9 9 7 6 5 6 6 9 14 15 16 15 16 18 17 15 14 13 12 11 9 8 7 6 6 5 5 5 4 3 3 3 2 3 5 7 10 11 9 6 6 8 12 15 18 19 17 15 14 13 14 14 15 15 15 15 15 15 15 15 16 17 16 16 15 15 14 14 14 14 14 14 14 13 13 12 11 10
12 11 10 10 9 10 11 10 10 10 9 6 3 3 4 4 4 8 9 11 12 12 15 16 16 15 13 12 11 9 7 7 7 6 6 6 5 5 5 2 3 1 3 4 7 10 9 7 6 7 11 15 17 18 16 13 13 13 13 14 14 15 15 15 15 15 16 16 16 16 16 16 15 15 15 14 14 14 13 12 12 12 12 12 11 10 9
14 11 10 10 9 10 11 10 10 13 12 8 4 4 6 6 6 6 5 5 6 10 13 14 14 14 12 11 10 9 7 7 7 6 6 6 4 5 6 3 4 2 2 5 9 9 5 5 7 12 15 16 17 16 13 11 12 13 13 13 14 14 14 15 15 15 15 16 16 16 16 16 16 16 15 14 14 14 13 11 11 11 11 11 10 10 9
15 12 12 12 10 9 9 8 9 14 17 13 7 6 4 5 9 12 10 6 6 12 16 14 13 12 12 11 10 9 7 7 7 6 6 5 4 3 2 2 3 2 2 6 9 6 4 6 10 13 15 15 14 14 12 11 12 13 13 13 14 14 14 14 14 14 15 16 16 16 16 16 16 15 14 13 13 13 12 11 10 9 9 10 10 10 8
12 11 10 11 10 9 10 9 6 8 13 14 8 5 7 7 9 12 13 10 10 13 16 15 13 12 11 10 10 9 9 8 8 7 6 5 5 5 4 3 2 1 2 6 7 4 4 7 9 10 12 13 13 12 11 12 13 13 13 13 13 14 13 14 14 14 15 15 15 15 15 15 14 14 13 12 11 11 10 9 8 8 9 10 9 8 7
12 11 11 11 10 9 10 10 7 4 5 9 9 4 7 12 10 9 12 14 13 12 13 14 14 13 11 10 9 9 7 6 5 5 6 5 5 5 4 3 3 1 3 5 3 1 2 6 7 7 9 12 12 11 11 12 13 12 13 13 13 13 13 13 14 14 14 14 14 14 14 14 14 13 12 11 10 10 9 8 7 7 8 9 8 7 7
12 12 12 12 11 10 8 9 9 7 4 4 5 7 5 10 12 11 13 14 14 13 13 13 13 12 11 10 9 8 6 3 2 3 4 4 4 3 3 5 5 1 3 5 4 1 1 3 4 5 8 11 11 10 11 12 12 12 12 12 12 13 13 13 13 13 13 12 13 13 14 14 13 12 11 11 10 9 8 7 6 6 7 7 7 7 7
13 11 10 10 9 8 6 6 8 9 5 1 2 4 2 8 10 11 11 12 13 14 14 14 12 11 11 10 8 7 6 4 2 2 2 3 3 3 2 3 2 3 4 5 6 6 5 6 6 6 8 10 10 10 10 11 11 11 12 12 12 12 12 13 13 13 12 12 12 12 12 13 12 11 11 10 9 8 9 8 7 7 7 7 7 7 6
13 11 10 9 8 6 4 4 6 7 5 3 0 1 4 8 9 10 11 9 8 7 10 11 10 10 10 9 7 6 6 5 4 3 2 3 3 3 2 2 3 4 4 5 6 7 7 7 7 7 7 9 9 9 9 10 10 10 10 10 11 10 10 11 12 12 11 11 12 11 11 11 11 10 10 10 9 9 9 10 9 9 9 9 9 8 8
13 11 10 9 10 10 7 6 8 9 7 5 5 5 6 8 10 10 11 9 6 5 8 9 8 7 7 7 6 6 5 4 3 3 2 2 3 2 2 2 2 3 5 5 6 7 7 7 6 6 6 7 8 8 8 9 10 9 9 9 10 10 9 9 9 10 10 11 11 10 10 10 10 9 9 10 10 9 9 10 10 10 10 10 10 10 10
Wind_Direction
218 302 317 294 319 333 300 165 146 219 235 257 268 255 265 311 74 135 154 149 145 147 145 140 138 138 128 121 123 116 104 101 97 93 88 80 76 74 70 63 57 54 52 52 49 48 49 47 45 44 39 34 28 16 4 7 28 28 29 43 40 11 12 12 266 252 281 308 301 282 280 285 272 244 237 230 223 224 217 209 211 216 221 221 209 204 209
229 245 285 280 292 334 11 110 121 328 263 248 251 256 270 348 109 138 150 144 138 136 135 135 134 129 121 117 117 111 104 100 93 83 78 78 74 67 63 61 57 53 48 47 50 52 51 47 45 47 47 43 43 32 4 353 17 28 29 43 40 23 28 30 343 265 264 290 302 285 274 284 292 285 278 265 241 230 224 220 217 214 215 222 219 207 203
283 240 235 259 274 298 307 259 217 241 271 266 266 259 260 111 120 138 142 135 131 131 131 125 117 116 123 127 126 123 123 118 106 91 73 67 67 65 61 54 52 53 49 42 42 48 53 52 44 41 45 45 48 48 23 3 17 30 37 44 39 28 26 20 2 357 339 299 302 301 292 290 286 278 290 300 291 268 243 229 223 219 214 217 224 220 209
273 246 215 224 247 258 267 262 245 222 240 247 248 243 237 150 135 143 147 141 136 140 138 127 123 137 142 137 125 111 104 101 103 104 90 69 57 58 60 54 46 46 46 40 36 37 44 51 47 38 34 36 37 39 34 26 26 31 38 42 39 32 26 16 5 4 5 355 343 339 333 326 311 275 271 289 305 315 309 279 246 232 221 215 220 228 227
263 249 218 216 241 238 244 251 239 225 231 240 232 226 215 130 143 151 154 145 137 142 145 141 145 152 148 136 118 90 69 63 64 79 87 76 60 53 55 55 48 43 41 37 33 31 35 42 45 41 34 31 31 27 24 26 32 34 36 40 40 37 31 23 15 10 9 8 10 11 3 346 338 329 291 274 285 309 323 324 313 292 265 235 223 227 234
268 257 218 193 233 234 243 256 232 218 214 226 230 197 100 89 139 144 139 141 145 149 153 155 152 138 121 119 113 99 101 93 68 61 72 71 62 55 56 55 49 42 38 33 27 25 30 36 39 38 33 30 31 29 24 26 33 35 33 35 37 35 31 29 24 17 14 13 12 17 16 4 358 353 327 295 275 276 295 307 302 297 297 284 258 243 238
270 272 216 201 230 238 8 28 5 228 207 214 203 115 93 86 124 131 134 144 152 158 162 160 144 124 117 125 122 116 124 132 121 113 89 74 71 61 56 61 57 45 35 28 20 17 23 30 32 32 29 26 25 27 27 29 33 36 34 32 31 28 25 27 28 23 19 16 14 17 15 10 14 12 335 310 303 286 281 279 263 268 288 294 283 275 261
254 255 222 217 234 97 76 58 43 45 81 109 111 102 92 94 126 137 143 150 156 158 153 144 129 123 126 126 124 126 121 316 139 121 89 69 72 61 49 57 60 48 32 22 14 11 17 25 25 24 24 23 21 22 22 24 30 34 34 30 26 24 22 23 25 25 22 17 13 14 13 8 9 12 357 337 325 303 299 311 289 272 283 286 279 277 277
234 246 232 209 151 172 169 131 114 105 86 98 130 129 118 123 137 142 148 154 155 147 141 138 137 139 138 135 151 155 141 37 21 94 86 65 63 57 45 50 54 45 27 15 9 7 17 29 23 14 16 19 19 19 16 16 22 28 29 26 22 19 18 18 19 18 18 20 14 9 10 9 6 5 359 350 338 317 297 296 283 262 262 266 263 263 266
214 243 248 222 213 235 209 163 157 202 220 137 143 157 151 151 152 150 150 155 157 155 152 151 150 149 139 139 177 165 141 127 80 81 80 63 55 50 41 42 43 35 21 11 7 5 15 27 16 3 12 19 17 17 13 9 14 20 21 20 16 13 13 12 13 10 10 18 19 11 9 8 5 1 356 352 345 330 318 315 305 282 268 264 259 258 258
222 231 249 230 223 263 156 140 141 161 123 86 101 188 187 167 164 165 164 166 173 174 160 145 151 167 157 143 160 157 134 128 118 83 53 38 38 35 39 39 30 21 14 10 7 3 11 18 5 357 13 21 16 15 11 5 9 13 14 14 11 8 5 2 5 7 9 13 11 7 9 10 7 3 356 351 351 345 339 334 327 312 298 289 279 271 267
243 231 237 234 221 90 112 125 124 114 101 101 160 217 190 167 169 173 175 177 190 198 163 129 133 165 145 134 141 130 122 130 125 103 64 37 23 15 31 33 18 8 12 12 4 1 9 11 358 355 8 10 5 6 3 360 4 7 6 6 4 2 360 358 360 2 5 6 359 353 360 5 3 358 347 337 338 343 346 339 326 311 299 292 285 277 272
240 235 237 236 118 110 132 135 127 120 122 154 203 211 149 156 159 166 182 175 157 158 147 110 92 91 99 113 136 124 109 113 118 94 68 47 28 18 24 24 13 10 13 9 0 359 5 3 355 356 1 356 352 353 350 352 359 360 359 358 357 359 358 355 357 358 359 357 351 349 354 354 350 346 342 334 323 322 333 339 327 311 297 287 279 272 270
243 241 237 222 132 120 143 137 126 131 161 186 158 94 108 143 147 155 169 127 93 100 104 84 78 105 108 108 121 117 103 101 116 83 53 43 31 21 18 19 24 23 12 3 360 358 359 357 355 356 353 345 344 343 339 342 346 348 351 351 351 354 355 353 354 352 351 350 347 346 345 342 341 340 338 336 328 319 320 322 316 308 298 287 276 266 263
237 238 234 223 164 149 157 147 129 112 269 123 109 98 93 102 114 134 126 95 82 91 97 85 83 104 100 93 92 96 98 105 105 82 64 51 32 20 14 15 24 22 8 1 359 352 349 352 351 349 345 342 340 336 333 336 336 334 340 343 344 348 351 352 350 344 344 347 343 337 335 337 340 338 331 328 329 327 319 309 303 301 298 291 280 269 263
243 234 231 229 146 140 142 143 120 92 97 112 114 111 107 103 98 98 103 99 86 69 78 95 98 97 103 106 106 106 108 77 65 61 51 41 27 17 12 8 11 10 359 354 352 344 343 345 344 342 341 339 335 331 329 330 329 327 326 327 333 343 344 343 341 339 339 337 331 329 333 335 334 330 323 319 321 324 322 314 304 295 291 288 281 273 266
324 73 98 106 149 133 108 96 97 104 112 113 99 106 124 130 131 129 120 114 103 83 74 97 112 132 105 97 98 101 85 59 54 42 32 30 22 13 6 4 4 358 347 343 341 339 340 340 337 337 337 332 328 327 326 325 322 318 315 313 318 330 336 336 335 335 332 328 328 334 332 325 321 322 324 322 316 313 314 314 306 299 301 305 302 294 286
112 120 118 117 136 131 114 112 112 110 115 114 106 126 137 121 120 131 127 124 124 125 127 141 242 215 111 89 85 68 46 39 38 30 24 21 13 5 3 4 0 351 341 336 335 335 336 337 335 332 330 326 322 321 322 323 319 313 313 312 311 315 324 331 333 331 326 325 330 333 325 320 322 325 327 327 322 317 317 322 324 326 327 325 322 319 315
176 167 160 155 161 149 130 135 137 124 114 111 114 143 121 109 109 103 97 113 126 129 132 177 228 209 115 95 88 68 44 21 19 17 10 7 6 3 1 358 355 347 338 334 334 334 334 334 334 331 327 323 320 319 321 322 320 318 316 313 311 311 316 326 330 326 323 324 328 328 325 326 328 324 318 318 320 323 329 336 339 337 332 326 323 322 320
218 171 145 150 159 155 154 164 157 141 130 118 101 87 96 106 109 104 101 115 135 145 159 185 194 165 122 86 66 50 32 28 16 360 353 357 358 356 352 347 343 340 335 334 335 334 331 331 331 330 327 322 319 318 318 317 316 316 312 307 304 303 307 321 327 321 317 323 330 331 330 327 322 320 319 318 318 319 321 321 322 323 321 318 317 317 315
215 172 145 147 150 168 190 206 195 166 153 143 129 119 119 116 112 114 121 132 155 158 153 147 147 150 128 98 63 6 358 1 345 338 345 349 346 343 340 336 334 332 332 335 335 330 329 330 331 328 325 321 319 316 313 313 314 312 308 304 300 298 304 317 318 313 318 329 333 331 328 323 319 318 317 315 311 307 305 306 309 311 309 307 309 312 310
232 326 12 170 190 208 203 211 216 186 154 151 153 152 158 164 156 150 153 152 142 131 128 140 165 189 174 147 122 347 312 301 312 334 343 337 333 332 329 329 333 333 333 337 335 332 333 333 331 329 324 319 316 315 311 310 310 307 305 303 299 297 298 301 304 313 330 336 333 328 322 318 317 314 310 309 307 303 302 305 309 309 304 302 305 309 308
243 344 356 358 329 316 331 222 226 186 139 149 156 150 158 178 173 166 180 183 165 153 164 177 188 211 211 187 185 222 255 280 306 323 327 323 324 328 327 327 329 328 331 337 337 338 340 336 332 331 328 321 316 313 310 310 310 308 308 307 302 298 297 302 319 344 349 336 327 324 318 313 311 310 310 311 309 306 305 306 308 308 306 304 305 305 303
240 358 9 0 336 324 7 310 243 177 154 168 161 149 158 179 182 179 183 186 186 190 194 190 196 222 235 223 207 217 255 290 296 297 310 317 316 318 319 320 325 329 334 340 341 341 342 339 334 330 327 327 327 322 314 310 310 310 310 310 308 306 307 314 333 347 342 328 321 318 313 308 306 308 311 312 312 311 310 307 306 307 310 311 311 309 299
276 183 37 338 307 290 285 263 214 179 176 183 175 169 174 187 209 211 183 165 179 193 206 211 195 189 198 222 255 268 260 263 278 295 310 308 304 310 315 320 329 335 336 338 341 340 339 341 338 330 326 337 347 344 339 336 330 324 321 319 320 324 323 320 324 327 322 313 308 307 308 309 310 314 315 314 313 312 311 310 308 308 312 312 312 315 310
265 236 200 258 280 287 293 260 215 184 173 172 179 195 184 169 187 224 228 203 200 192 192 243 230 137 88 77 258 267 266 264 281 299 299 295 300 312 320 326 334 336 333 335 336 334 336 343 342 333 332 349 359 355 354 358 355 349 346 340 334 330 324 319 320 320 313 305 303 309 318 321 322 321 317 313 312 310 309 309 309 309 312 313 312 318 319
277 263 232 231 249 256 269 265 239 196 177 176 186 205 188 149 151 184 224 269 252 190 177 216 234 172 82 201 227 248 260 258 260 266 280 301 312 313 319 330 335 333 333 334 332 331 336 343 343 336 336 350 357 351 350 354 354 352 353 350 340 331 325 323 322 319 315 316 319 323 326 326 322 316 309 306 305 302 300 300 300 301 306 310 310 313 314
265 257 241 232 231 226 235 255 254 230 202 194 197 207 196 157 152 179 209 279 292 211 165 182 215 198 200 216 224 242 252 251 252 265 294 312 312 312 322 331 333 331 330 330 331 334 337 339 339 337 338 346 352 349 347 348 345 342 342 341 336 330 327 326 323 318 317 320 322 320 318 314 309 303 299 296 295 293 291 289 291 295 302 307 308 308 308
248 256 254 243 230 220 218 230 240 234 212 197 195 205 202 172 157 176 195 211 228 218 173 172 206 210 205 209 219 236 250 259 269 290 304 302 308 322 330 328 328 330 330 331 337 341 340 337 336 335 338 346 350 348 345 343 339 335 333 330 326 323 321 319 318 316 313 312 309 307 305 302 296 292 290 290 290 291 289 289 291 295 299 302 304 305 305
236 237 247 246 238 235 232 229 226 220 210 199 195 203 204 184 170 184 198 202 209 207 189 190 202 206 203 210 220 230 242 254 264 281 294 296 306 323 326 326 329 328 328 333 338 338 337 336 332 332 337 343 345 343 342 339 334 331 329 326 323 321 321 322 322 317 310 306 304 302 300 297 293 291 292 293 293 291 289 291 293 293 295 299 303 306 310
242 229 240 248 241 240 244 240 232 226 218 208 202 207 211 203 193 196 204 204 202 199 195 192 191 194 205 218 228 233 239 253 265 272 281 290 300 313 320 328 332 329 327 330 331 331 334 334 331 333 338 342 343 341 336 332 329 327 325 325 323 321 323 329 332 327 318 311 308 305 301 296 293 293 293 293 292 291 291 295 297 298 300 302 302 305 309
288 256 245 247 247 251 253 245 237 231 222 214 210 210 212 215 213 208 208 210 205 199 196 191 185 193 210 219 224 231 236 244 258 268 274 282 293 306 316 324 328 326 325 327 327 327 331 332 332 336 339 340 341 338 332 328 328 325 323 324 323 320 321 324 327 325 320 314 308 303 298 294 293 294 295 295 295 294 294 295 298 300 303 304 305 307 312
316 298 287 280 265 254 253 248 240 235 229 222 219 217 214 215 218 216 211 213 211 204 200 194 188 194 209 214 216 228 238 240 248 262 271 282 301 310 312 317 321 321 322 326 325 324 327 331 336 341 343 341 338 332 328 327 328 326 325 324 321 318 316 316 316 315 312 306 302 301 301 301 300 299 298 297 295 294 293 293 294 297 301 304 305 307 310
335 332 324 316 308 297 286 276 255 241 235 225 220 221 216 210 212 213 209 212 217 209 196 193 194 195 203 210 211 219 232 238 243 259 273 292 317 322 315 312 313 314 317 321 322 321 326 334 343 347 346 341 333 327 326 327 325 324 325 323 318 316 314 312 310 308 305 303 302 301 300 301 302 301 300 299 297 296 296 297 296 295 296 297 297 300 307
348 353 340 327 328 339 341 334 321 298 276 246 226 217 198 180 226 230 214 208 216 208 187 184 194 196 195 204 212 218 229 237 245 264 284 297 311 318 317 315 314 313 314 315 321 328 330 334 344 349 344 333 325 322 324 326 325 326 328 324 318 314 313 311 309 307 304 304 303 300 298 298 299 302 302 299 296 294 293 293 292 290 290 290 292 299 310
344 347 342 329 326 334 333 321 318 327 333 311 264 232 179 163 238 253 237 215 211 205 188 183 192 195 194 200 209 215 224 237 250 266 286 310 325 326 321 318 315 314 310 309 323 342 339 329 334 341 337 326 320 321 323 324 325 328 329 325 319 313 312 312 309 305 304 304 302 300 301 301 301 302 299 295 293 292 292 292 292 291 291 292 295 302 312
331 330 328 325 326 329 323 302 290 283 278 281 273 246 205 189 210 242 248 228 207 198 194 191 190 192 194 197 202 206 208 214 239 263 282 310 319 316 312 310 308 307 306 314 332 339 331 324 328 332 328 320 318 320 322 326 332 333 329 322 317 313 311 309 307 303 302 303 302 301 303 302 300 298 296 293 294 295 296 297 298 297 297 299 300 303 307
322 321 321 324 327 330 330 320 305 285 263 248 233 221 218 205 203 231 251 240 210 195 196 193 187 189 194 193 194 198 198 198 209 228 253 285 302 306 306 308 311 313 317 330 338 332 326 328 329 326 321 319 320 323 323 328 337 338 331 320 314 311 307 305 304 303 302 303 303 303 303 302 300 298 297 297 298 298 298 299 301 300 298 298 297 296 297
323 323 326 330 330 328 332 338 333 306 279 264 246 218 207 204 201 222 243 237 212 193 191 189 183 187 194 192 190 195 196 197 209 223 242 273 299 305 299 301 326 18 9 349 339 330 327 329 326 322 325 335 339 335 330 327 329 330 324 315 310 308 306 304 304 304 304 303 304 304 303 302 301 300 301 301 300 298 296 297 298 298 296 294 292 291 293
325 323 324 326 324 320 320 322 322 312 297 289 281 256 220 200 192 216 240 232 203 184 186 188 184 184 188 186 186 190 185 182 197 216 227 257 292 295 287 297 43 67 51 16 356 337 326 324 323 328 346 359 350 338 332 328 324 321 316 312 308 305 304 304 305 305 307 307 305 304 305 305 304 304 305 304 301 298 296 295 295 296 297 297 296 297 300
320 321 323 322 317 312 311 312 311 307 300 297 293 278 248 213 189 199 239 238 205 180 180 185 183 182 185 182 180 183 182 180 194 211 214 231 276 279 280 317 30 44 27 7 354 335 325 330 344 353 355 351 340 332 330 328 322 316 312 310 307 304 304 306 307 309 312 312 309 306 304 304 303 303 303 303 301 300 298 297 296 296 296 295 296 299 301
315 316 316 314 311 306 302 303 304 301 297 297 295 281 261 232 195 188 221 243 218 181 174 181 181 177 177 177 176 179 184 186 195 207 210 224 251 257 268 311 357 12 354 347 343 330 325 337 2 4 349 339 335 331 327 323 318 315 313 311 309 307 307 307 308 309 312 313 311 308 305 303 303 302 302 301 301 299 297 296 296 297 297 296 297 300 302
312 312 309 308 313 314 308 303 301 298 298 303 302 274 250 237 199 184 204 233 224 181 166 169 170 165 167 175 176 176 182 191 200 206 213 229 238 228 235 289 321 352 8 354 339 327 326 336 355 355 342 338 336 332 327 322 319 317 315 313 312 311 309 308 308 308 308 308 307 306 304 303 303 304 304 303 301 298 297 299 299 298 299 302 302 303 304
310 311 311 315 324 321 312 306 304 297 286 284 294 256 226 219 184 165 186 223 222 181 155 152 156 160 169 179 179 176 183 195 202 206 218 233 225 180 168 219 290 336 58 19 339 326 332 357 12 352 340 340 338 333 328 324 322 319 317 316 315 314 314 314 312 311 310 308 305 304 303 303 303 304 304 303 301 299 301 305 306 307 308 310 308 305 305
308 308 316 319 317 311 306 309 315 307 291 270 239 221 222 211 182 163 175 218 205 167 148 145 152 161 170 178 178 179 187 196 200 205 218 235 225 163 152 192 275 293 21 353 332 330 354 25 3 344 342 344 340 333 329 326 324 322 322 321 319 318 320 320 318 316 315 313 309 307 307 305 303 302 302 303 303 302 302 305 310 315 318 317 315 311 308
309 316 323 316 307 306 307 308 314 310 298 278 234 189 198 206 188 183 194 218 197 171 164 160 159 163 169 173 174 175 181 190 198 202 208 221 229 210 201 261 284 298 332 324 320 330 6 6 349 346 351 350 343 336 334 332 327 325 326 326 322 320 321 322 320 318 317 315 313 312 312 310 308 306 306 308 309 310 310 311 315 317 319 318 318 317 316
314 320 320 309 305 309 306 296 302 316 304 289 263 186 171 184 184 176 176 184 189 182 173 166 161 163 171 175 174 176 183 192 198 199 198 199 205 214 231 246 221 174 328 318 310 312 345 350 350 355 357 352 345 341 339 335 331 329 330 329 328 327 326 326 324 322 319 317 317 317 318 318 319 319 319 319 319 319 320 322 322 322 320 318 319 324 332
322 325 324 315 310 308 298 290 288 287 276 283 294 277 185 177 172 158 156 165 177 178 167 158 158 165 172 176 176 178 186 198 201 193 195 209 223 222 206 182 164 182 314 312 293 188 22 6 8 7 356 348 346 345 342 338 336 334 330 328 329 333 335 334 330 327 324 323 324 324 324 324 323 324 325 325 323 320 320 323 327 329 328 324 325 330 336
333 332 331 325 319 320 321 311 299 282 238 229 284 289 217 170 159 149 147 158 173 176 165 158 160 164 167 173 175 169 165 175 186 172 178 209 253 254 178 154 148 167 301 305 302 303 356 359 360 355 347 343 342 342 341 340 340 339 336 332 331 333 337 338 336 334 333 332 333 335 336 335 332 331 333 333 330 328 327 330 337 343 341 337 336 339 341
347 344 341 334 327 332 344 333 307 301 310 335 275 272 195 150 151 149 145 157 180 181 165 156 160 164 165 170 176 165 151 153 161 150 169 210 250 265 234 215 238 274 290 299 303 305 309 316 322 328 333 335 336 337 339 339 339 340 341 339 334 333 336 340 341 342 344 344 342 344 348 350 349 348 347 348 352 357 358 358 1 4 1 356 351 347 347
1 359 349 339 336 340 358 8 351 344 358 34 108 209 139 132 137 137 135 147 175 169 140 139 161 173 165 161 164 160 154 163 176 178 192 230 254 252 237 255 287 290 282 284 292 297 304 314 319 317 318 324 329 333 335 335 335 337 340 341 338 336 339 343 345 345 347 348 349 351 354 358 360 1 2 2 4 9 13 15 18 17 15 13 11 7 4
10 11 2 358 1 1 5 29 36 32 46 92 132 153 139 122 117 123 138 157 182 163 133 142 169 176 155 147 156 166 169 175 183 183 199 249 274 264 240 245 278 280 273 277 288 296 304 312 312 307 309 318 325 326 326 327 330 333 336 338 337 337 340 346 349 349 349 352 354 355 357 0 4 10 15 18 20 20 21 22 21 19 18 19 20 22 23
Height
759 757 757 751 752 752 745 745 751 751 753 754 757 760 754 749 774 799 793 785 792 791 787 790 792 791 794 795 794 796 796 796 797 798 800 803 804 804 806 807 807 807 807 806 805 805 805 806 807 805 805 807 808 809 811 809 805 804 804 803 803 803 804 805 805 805 810 816 818 819 821 821 820 819 818 819 820 820 821 821 823 824 825 825 826 828 830
759 758 760 755 755 757 754 754 756 756 756 755 755 755 749 751 770 783 786 792 794 788 788 790 789 790 792 793 794 796 799 800 800 801 804 804 806 807 807 807 807 808 807 807 807 807 806 807 808 809 810 810 809 811 815 815 809 806 806 805 804 803 805 808 807 806 808 814 819 823 823 820 818 817 819 821 821 821 821 821 821 822 823 825 825 825 827
769 761 760 760 759 761 762 760 757 759 761 758 756 755 751 759 775 779 783 796 799 791 788 790 793 794 794 796 799 799 800 801 802 806 808 808 808 809 809 809 809 808 808 809 808 808 808 808 808 809 811 811 811 813 817 817 811 808 808 807 806 806 806 808 809 808 809 811 818 823 822 818 816 816 820 825 826 824 822 821 821 821 822 823 824 825 825
782 764 761 765 761 762 768 766 760 762 764 762 760 758 754 763 780 787 791 802 804 795 791 794 798 799 799 801 802 801 801 801 803 808 811 812 812 811 811 812 811 810 811 811 811 810 810 810 810 809 810 810 812 813 815 814 811 809 809 808 808 808 807 808 808 809 810 811 814 818 820 820 818 817 820 825 828 828 826 824 823 822 822 822 823 824 824
785 765 760 763 764 776 782 769 760 761 762 761 760 757 755 761 774 788 797 801 798 794 794 798 801 801 802 802 803 805 806 804 806 807 809 813 815 813 813 814 813 813 813 813 814 813 812 812 812 813 812 812 812 812 811 811 809 809 809 810 810 811 811 811 810 810 811 812 814 816 817 820 822 820 820 821 824 827 827 826 825 823 822 822 822 823 824
786 767 758 765 781 794 784 757 747 753 757 759 760 759 761 765 771 780 789 792 792 793 795 798 801 803 803 803 804 805 806 807 811 811 810 814 816 815 815 815 815 816 815 815 816 815 814 814 814 815 815 814 813 813 812 811 810 811 811 812 813 814 814 814 814 813 813 814 816 817 817 820 822 821 821 819 818 820 822 824 825 824 823 821 821 822 822
783 769 768 789 802 791 766 749 746 747 748 751 755 762 767 770 774 781 787 790 792 792 793 793 797 801 803 803 804 805 806 807 810 811 813 815 816 817 816 816 817 818 817 818 817 816 816 816 815 816 816 815 815 814 813 813 813 813 814 814 815 816 816 816 816 816 816 816 817 817 818 819 820 820 819 818 816 815 816 818 821 823 824 822 821 820 819
783 779 784 800 798 774 759 760 757 752 753 756 763 776 780 775 777 784 789 791 790 789 791 793 796 801 803 804 805 806 807 806 805 808 813 815 816 817 817 816 818 819 819 819 819 818 817 817 817 817 817 817 817 816 815 815 815 815 816 816 816 816 817 817 817 818 818 818 818 817 817 817 817 816 816 816 815 814 813 815 817 820 822 822 821 820 819
784 787 785 785 787 780 773 772 766 760 763 765 771 786 790 780 778 783 788 792 791 789 792 796 799 801 805 810 811 807 808 809 806 808 813 815 816 817 817 817 818 820 821 820 820 819 818 818 819 818 818 818 817 817 816 816 815 816 816 817 817 817 818 818 818 818 819 818 818 817 816 815 815 814 814 814 813 812 811 812 813 815 817 817 817 817 818
781 787 787 784 794 795 780 771 766 761 761 762 765 781 791 784 779 782 786 791 792 791 793 796 799 804 812 818 814 805 806 810 810 811 814 816 817 818 818 818 819 820 821 821 820 820 819 820 820 819 819 819 818 818 818 817 817 817 817 818 818 818 819 819 819 819 818 818 817 817 816 815 814 813 813 813 812 811 811 810 811 812 813 813 813 813 814
780 787 794 790 794 792 775 767 767 762 762 763 768 787 795 785 778 781 784 788 789 787 791 794 797 805 818 823 815 804 804 809 812 815 817 818 819 819 818 820 821 821 822 821 821 821 820 821 821 820 820 820 820 821 820 819 819 819 819 820 820 820 820 819 819 819 818 817 817 816 816 816 815 814 813 812 811 810 810 810 811 812 813 813 813 812 812
782 786 790 784 784 783 772 767 769 766 764 768 785 805 800 779 775 779 781 785 786 784 788 794 798 804 813 817 813 807 807 811 814 817 819 820 821 820 820 821 822 822 822 822 822 822 821 822 822 821 821 822 822 822 822 821 821 820 821 821 821 821 821 819 819 819 818 817 816 815 816 816 815 814 813 811 809 808 808 809 810 811 813 813 813 812 812
781 784 787 783 782 779 770 768 770 767 769 780 799 807 790 773 776 779 776 782 787 786 788 794 801 805 808 810 811 809 810 814 815 818 820 821 822 822 822 823 823 823 823 823 823 823 823 824 823 823 823 823 823 823 823 823 822 822 822 822 821 821 821 820 820 819 818 817 816 815 815 814 814 814 812 811 809 808 808 809 809 811 812 813 812 811 810
781 780 782 787 790 780 768 769 770 770 781 795 798 791 779 775 779 779 778 784 789 790 793 798 804 806 806 809 811 811 813 817 818 820 822 823 824 825 824 824 824 825 825 825 825 825 825 825 825 825 825 824 824 824 824 823 823 823 823 822 822 821 821 820 820 819 818 817 816 815 815 814 813 812 811 810 809 808 808 808 808 810 811 811 811 809 808
781 781 782 792 796 781 767 772 777 779 789 795 789 783 781 781 780 780 784 789 793 796 799 803 808 808 808 812 814 814 816 819 819 821 824 824 826 826 825 825 826 826 827 827 827 828 827 827 827 826 826 826 825 825 824 824 824 823 823 823 822 822 821 821 820 819 818 817 816 815 814 813 813 812 810 809 808 808 808 808 808 808 808 808 809 807 805
779 788 790 791 788 775 768 776 783 785 787 786 783 785 787 787 786 787 790 794 798 801 804 808 811 812 812 815 816 817 819 820 820 823 824 825 827 827 826 827 827 828 829 828 829 829 828 828 828 827 827 826 826 826 825 824 824 824 823 823 822 822 822 821 820 820 819 817 816 815 814 813 812 811 810 809 808 807 808 808 808 808 807 807 807 806 803
777 785 787 783 777 771 772 779 783 784 785 784 784 787 788 789 791 791 795 800 804 807 810 812 814 813 814 815 816 818 820 820 822 825 825 826 828 827 827 828 828 828 829 828 829 829 828 828 828 827 827 827 826 825 825 824 824 823 823 822 822 822 822 821 820 820 818 817 816 815 814 813 812 811 810 809 808 808 808 808 808 808 807 807 806 804 802
777 780 779 776 776 775 777 781 783 785 787 787 787 788 789 791 793 793 796 802 806 810 813 814 814 814 814 816 817 819 820 822 824 826 826 827 828 828 829 829 829 829 829 828 828 828 828 828 828 827 827 827 825 825 824 824 823 823 822 821 821 821 821 821 820 820 818 817 816 815 814 813 812 811 810 809 809 808 808 808 808 807 807 806 805 803 801
782 786 780 776 778 778 779 781 783 785 788 789 790 790 791 793 796 798 799 802 806 811 814 815 816 815 815 816 819 820 821 823 824 825 827 828 828 829 829 830 830 830 829 828 828 827 827 827 827 826 826 825 825 824 823 823 822 822 821 821 820 820 820 820 820 819 818 816 815 815 814 813 812 811 810 809 809 808 807 807 807 806 806 805 804 803 801
782 784 779 775 777 778 778 781 783 786 790 792 792 793 794 796 800 802 803 805 808 811 813 815 816 816 816 818 820 820 822 823 824 826 827 827 828 829 830 830 830 830 829 829 828 828 827 827 826 826 825 824 824 823 823 822 822 821 820 820 819 819 819 819 819 818 817 816 815 815 814 813 812 811 810 809 809 808 807 807 805 805 805 804 803 802 801
778 780 779 779 783 783 781 781 781 783 789 792 794 796 799 800 803 806 807 808 809 810 812 814 816 817 818 819 821 822 823 824 825 826 826 827 828 829 830 830 830 829 829 829 829 828 828 827 826 825 825 824 823 822 821 821 820 820 820 819 818 818 817 817 818 818 817 816 816 815 814 813 812 811 810 809 809 808 807 806 805 804 803 803 802 801 800
789 789 785 783 787 788 785 782 781 782 785 790 793 795 798 801 804 807 809 810 811 811 813 815 817 818 819 820 822 823 824 824 825 826 826 828 828 828 829 829 829 829 829 829 829 829 828 827 826 825 824 823 822 821 820 820 819 819 818 817 816 816 816 816 817 816 816 816 816 816 815 813 812 811 809 808 808 806 805 804 804 803 802 801 800 799 798
801 797 791 786 788 791 787 783 782 783 784 788 791 794 798 801 803 806 808 809 810 812 814 815 816 817 818 819 821 822 823 825 825 826 827 828 828 828 829 828 828 829 829 829 829 829 828 828 827 825 823 822 821 820 819 818 818 817 817 816 815 815 814 815 815 815 816 816 816 816 815 814 812 810 808 807 806 805 803 802 802 801 800 799 797 797 796
799 796 793 791 792 794 791 787 785 785 786 788 791 794 797 800 802 805 807 808 810 813 813 814 815 817 817 817 819 820 823 825 826 826 828 828 828 829 829 828 828 828 828 829 829 829 829 829 827 826 824 822 820 819 818 817 817 816 816 815 814 814 814 815 815 815 815 816 816 815 815 813 812 810 808 806 804 802 801 801 800 799 798 796 795 794 793
797 795 794 793 792 791 790 788 787 786 787 788 790 794 797 800 801 802 803 805 809 812 812 812 814 816 816 817 818 821 823 825 826 827 827 828 829 829 828 828 828 828 828 829 829 828 828 828 827 826 824 822 820 819 817 816 816 815 815 814 814 814 814 815 814 814 815 815 815 815 814 813 811 810 808 807 804 802 800 798 797 797 796 794 793 792 790
792 792 792 792 791 789 790 791 789 788 788 790 792 794 796 799 802 803 803 804 806 808 810 812 813 815 817 819 821 823 824 824 826 827 827 828 828 828 828 828 829 829 829 829 828 828 828 827 827 826 824 822 822 820 818 817 816 815 815 815 814 814 814 815 815 814 814 814 814 813 812 812 811 810 809 808 806 803 800 797 795 794 793 792 791 790 789
790 790 791 793 793 792 793 795 793 789 789 791 793 794 796 799 802 804 806 807 806 807 810 812 814 816 819 821 823 824 825 824 825 826 827 828 828 828 829 829 829 829 829 828 828 828 827 827 827 826 824 823 822 821 820 819 817 816 816 815 815 814 814 814 814 814 813 813 813 812 812 811 811 810 809 808 806 805 802 798 795 793 791 790 789 788 787
790 791 791 792 794 794 794 795 793 790 789 791 793 794 796 799 801 804 806 807 807 808 810 813 815 817 820 822 824 825 824 824 824 825 826 828 828 828 828 829 829 829 829 828 828 828 827 827 827 826 825 824 823 822 821 820 819 817 816 815 815 814 814 813 813 813 813 812 812 812 811 811 810 809 809 807 806 804 801 798 795 792 790 788 788 786 785
788 789 789 788 789 792 792 792 792 791 790 791 793 795 797 799 802 804 805 807 808 809 812 814 817 818 820 822 823 824 824 823 824 825 826 827 828 828 828 829 829 828 828 828 828 828 827 827 826 826 826 825 824 823 822 821 820 818 817 816 815 814 814 813 813 812 812 811 811 811 810 809 808 808 806 805 804 802 799 797 794 791 789 787 786 785 784
786 787 787 785 785 787 788 788 789 790 789 790 793 795 796 799 802 804 805 806 807 809 811 813 816 817 819 821 822 823 823 824 824 825 826 827 827 828 828 828 828 828 828 828 828 827 827 827 826 826 826 825 824 824 822 821 820 819 817 816 815 814 814 813 812 811 811 810 809 809 808 807 806 805 804 803 802 800 797 795 792 790 788 786 785 783 782
784 783 784 785 784 785 786 786 787 788 788 790 793 794 796 798 800 802 803 804 806 807 809 812 814 816 819 820 821 822 823 823 824 825 826 826 827 827 827 828 828 828 828 828 828 827 827 827 826 826 826 825 824 824 822 821 820 819 817 816 815 814 814 813 812 811 810 809 808 808 807 806 804 803 802 801 800 798 796 794 792 789 787 785 784 783 781
786 784 784 784 784 784 785 785 786 787 787 788 791 793 795 796 798 799 801 802 804 806 808 810 813 815 818 819 820 821 822 823 824 824 825 825 826 826 827 827 828 828 828 828 828 827 827 826 826 826 826 825 824 823 822 821 820 818 817 816 815 814 813 812 812 811 810 809 808 807 805 804 802 801 800 800 798 797 795 793 791 790 787 785 784 782 781
794 791 789 788 787 787 786 785 784 786 786 787 789 791 793 795 797 798 800 802 803 805 806 809 811 814 816 818 819 821 821 822 822 823 823 824 825 825 826 826 827 827 827 827 827 827 827 826 826 826 825 825 824 823 823 821 820 818 818 816 815 815 813 812 812 811 809 808 807 806 804 803 801 800 799 798 797 795 794 792 791 789 788 786 785 783 781
797 797 797 795 792 790 788 785 784 785 786 787 789 790 791 794 797 798 800 802 803 803 805 807 810 813 815 817 818 819 820 821 821 821 822 823 824 825 825 826 826 826 826 826 826 827 826 826 826 826 825 825 824 823 822 821 820 819 817 816 815 814 813 812 811 810 809 807 806 805 803 802 800 799 798 797 796 794 793 791 790 789 788 786 784 783 781
794 795 796 796 794 793 791 789 788 788 788 789 788 788 790 795 799 799 800 801 802 803 804 806 809 811 814 816 817 818 818 819 819 820 822 822 823 824 825 825 825 825 825 825 826 826 826 826 826 825 825 824 824 823 822 821 820 818 817 816 815 813 812 811 810 809 807 806 805 803 802 800 799 798 797 796 795 793 791 790 789 788 787 785 783 782 781
794 793 793 793 793 793 793 793 792 791 791 791 790 789 791 795 798 801 801 800 800 801 803 805 807 810 812 814 816 817 817 818 819 820 821 822 823 824 824 824 824 824 824 824 825 825 826 826 826 825 825 825 824 823 821 820 819 818 817 816 814 813 811 810 809 807 806 805 803 802 801 799 798 797 796 795 793 792 790 789 787 786 785 784 782 781 780
793 793 793 792 792 792 792 791 791 791 791 791 791 791 791 793 796 799 800 798 797 799 801 803 806 808 811 813 814 815 816 817 819 820 821 822 822 823 823 823 824 823 823 824 824 825 825 825 825 825 825 824 823 822 821 820 819 818 816 815 814 813 811 809 808 806 805 804 802 801 800 798 797 796 794 793 792 790 789 788 786 785 784 783 781 781 780
792 791 791 791 791 791 791 790 790 790 791 791 790 791 791 792 793 796 797 796 795 797 799 802 804 807 809 811 812 813 815 816 818 819 820 821 822 822 823 823 823 823 823 824 824 825 825 825 825 824 823 823 822 821 820 819 818 817 816 815 814 812 810 808 807 805 804 802 801 800 799 797 796 794 793 792 790 789 788 787 785 784 783 782 781 780 779
792 791 791 790 790 790 790 789 789 789 790 790 788 788 789 790 790 793 796 796 794 795 798 800 803 805 807 809 811 812 813 815 816 818 819 820 821 822 822 822 822 822 823 824 824 824 824 824 823 823 822 821 821 820 819 819 818 817 816 814 812 810 808 807 805 804 803 802 800 799 798 796 795 793 792 791 789 788 787 786 785 784 782 781 780 778 777
792 791 791 791 790 790 790 789 788 788 789 788 787 787 787 787 787 790 794 794 792 792 796 798 800 803 806 807 809 811 813 814 816 817 818 819 821 821 821 821 821 822 823 823 824 824 823 823 822 821 821 821 820 820 819 818 817 816 814 812 810 809 807 805 804 803 802 801 800 798 797 795 794 792 791 790 788 787 786 785 783 782 781 780 778 777 776
792 791 791 790 790 789 789 788 788 787 787 787 786 786 786 785 785 787 791 792 791 791 794 796 798 801 804 806 808 810 811 813 815 816 817 819 820 821 820 820 821 822 822 822 823 823 822 821 821 821 820 820 820 819 818 816 815 814 812 810 809 807 806 804 803 802 801 800 799 798 796 794 793 791 790 789 788 787 785 784 783 781 779 778 777 776 775
791 790 789 789 788 788 787 787 787 786 785 785 785 785 785 785 784 785 788 791 791 790 792 795 797 799 802 805 806 808 810 812 814 815 817 818 819 820 820 820 821 821 821 822 822 822 821 820 820 820 820 819 819 818 816 815 813 812 810 809 808 806 804 803 802 801 800 799 798 797 795 794 792 790 789 788 787 785 784 783 782 780 778 777 776 775 774
791 789 788 788 787 787 787 786 785 785 785 784 784 784 784 784 784 784 786 790 791 790 791 794 796 798 801 804 805 807 809 811 812 814 816 816 817 818 819 820 820 820 820 821 821 820 820 819 819 819 819 818 817 816 814 813 811 810 809 808 807 805 804 802 801 800 799 797 796 795 794 793 791 790 788 787 785 784 783 782 780 779 778 776 775 774 773
790 789 788 788 788 788 788 787 786 785 785 784 783 783 783 784 784 784 786 790 792 791 790 793 796 798 800 802 803 805 808 809 811 813 814 815 815 817 818 819 820 819 819 820 820 819 819 818 818 818 817 817 815 814 813 811 810 809 808 807 806 804 803 802 800 799 798 797 795 794 793 791 790 789 787 786 785 783 782 781 779 778 777 775 774 773 772
791 788 787 787 787 787 787 786 785 785 785 783 782 782 782 783 784 784 786 790 793 793 792 793 795 797 799 801 802 804 807 808 810 811 812 813 814 815 816 818 818 818 818 819 819 818 818 817 817 817 816 815 814 813 812 810 809 808 807 806 805 804 802 801 800 799 797 796 795 793 792 790 789 787 786 785 784 782 781 779 778 777 776 775 774 773 771
792 789 787 787 786 785 785 785 784 785 785 782 780 780 781 782 782 783 785 789 792 793 792 794 796 797 799 800 802 804 806 808 809 810 811 812 813 814 815 816 817 817 817 818 818 817 817 816 816 815 815 814 813 812 811 810 809 808 807 806 805 803 802 801 800 798 797 796 794 792 791 789 788 786 785 784 782 781 780 779 777 776 775 775 773 772 771
790 788 787 786 785 784 784 783 782 782 783 782 779 778 778 780 781 783 785 789 792 793 793 794 796 797 799 800 801 803 805 806 807 809 810 811 812 813 814 815 815 816 816 816 816 816 816 815 815 814 814 813 813 812 810 809 808 807 806 805 804 803 802 800 799 798 796 795 793 792 790 788 787 785 784 783 782 780 779 778 777 776 775 774 773 772 770
789 787 785 784 783 782 782 782 780 780 781 781 780 778 777 778 780 782 784 787 790 792 792 794 795 797 799 800 801 803 804 805 806 807 809 810 811 811 812 813 814 814 815 815 814 814 814 814 814 814 814 813 812 811 810 809 808 807 806 805 804 802 801 800 799 797 796 794 792 791 789 788 786 785 783 782 781 780 778 777 776 775 774 773 773 771 770
788 787 785 785 783 781 781 781 780 778 777 778 778 778 777 778 780 782 784 786 788 790 792 793 795 797 798 800 801 802 804 805 806 807 808 809 810 810 811 812 812 813 813 814 813 813 813 813 813 813 813 812 811 810 810 809 808 807 806 805 803 802 800 799 798 796 795 793 792 791 789 787 786 785 783 782 780 779 778 777 776 775 774 773 772 771 770
788 787 786 786 784 782 781 781 781 779 778 777 778 778 778 779 780 782 783 786 788 790 791 792 794 796 798 799 801 802 803 805 806 807 808 809 809 810 810 811 811 812 812 813 813 812 812 812 812 812 812 811 810 810 809 808 807 806 805 804 803 801 800 799 797 796 795 793 792 790 789 787 786 784 783 782 780 779 778 777 776 775 774 773 772 771 770
789 788 787 786 785 783 782 781 782 781 780 778 778 778 779 781 782 783 785 787 788 788 789 791 794 796 797 799 800 802 803 805 806 807 807 808 808 809 809 810 810 810 811 811 811 811 811 811 811 811 810 810 809 809 808 807 806 805 805 804 802 801 800 798 797 796 794 793 792 790 789 787 786 785 784 782 781 779 778 777 776 775 774 773 772 771 770
791 790 788 787 786 785 783 783 782 781 780 779 779 779 781 782 784 785 787 789 790 789 790 793 795 796 797 798 800 802 803 805 805 806 807 808 808 808 808 808 809 809 809 810 810 810 810 809 809 809 809 809 808 808 807 806 806 805 804 803 802 801 799 798 797 796 794 793 792 790 789 788 787 786 784 783 781 780 778 777 776 775 774 773 772 771 770